Location: Unspecified
(0.0000°N, 0.0000°E)
Time: 12:00:33
(UTC+02:00)

DELTA 2 R/B (1) - Visible Passes

Search period start: 28 May 2015 00:00
Search period end: 07 June 2015 00:00
Orbit: 792 x 802 km, 39.6° (Epoch: 27 May)

Date Brightness Start Highest point End Pass type
(mag) Time Alt. Az. Time Alt. Az. Time Alt. Az.
28 May 5.8 06:08:33 11° SSE 06:10:46 14° SE 06:13:51 10° ESE visible
28 May 4.9 20:30:07 10° WNW 20:35:08 33° SW 20:40:07 10° SSE visible
29 May 5.9 05:39:52 13° SE 05:40:00 13° SE 05:42:32 10° ESE visible
29 May 3.6 07:21:05 10° SW 07:26:40 87° SE 07:32:14 10° NE visible
30 May 3.6 06:51:58 20° SW 06:55:57 77° SE 07:01:30 10° NE visible
31 May 3.7 06:23:15 40° SSW 06:25:14 68° SE 06:30:46 10° NE visible
01 Jun 3.8 05:54:31 60° SE 05:54:31 60° SE 06:00:00 10° ENE visible
02 Jun 4.9 05:25:43 36° E 05:25:43 36° E 05:29:13 10° ENE visible
02 Jun 5.1 07:06:32 12° W 07:10:14 22° NW 07:14:25 10° N visible
03 Jun 6.0 04:56:54 18° ENE 04:56:54 18° ENE 04:58:24 10° ENE visible
03 Jun 4.9 06:37:42 22° WNW 06:39:29 25° NW 06:43:57 10° NNE visible
04 Jun 4.7 06:08:49 28° NW 06:08:49 28° NW 06:13:26 10° NNE visible
05 Jun 5.2 05:39:52 26° N 05:39:52 26° N 05:42:54 10° NNE visible
06 Jun 5.9 05:10:52 17° NNE 05:10:52 17° NNE 05:12:20 10° NNE visible
